Regional Weather Roundup
Issued by NWS

Home | Current Version | Previous Version | Graphics & Text | Print | Product List | Glossary On
Versions: 1 2 3 4 5 6 7 8 9 10 11 12 13 14 15 16 17 18 19 20 21 22 23 24 25 26 27 28 29 30 31 32 33 34 35 36 37 38 39 40 41 42 43 44 45 46 47 48 49 50
000
ASUS45 KABQ 241010
RWRNM
NEW MEXICO REGIONAL WEATHER ROUNDUP
NATIONAL WEATHER SERVICE ALBUQUERQUE NM
400 AM MDT WED MAY 24 2017

NOTE: "FAIR" MEANS FEW OR NO CLOUDS BELOW 12,000 FEET AGL WITH NO
       SIGNIFICANT WEATHER OR OBSTRUCTIONS TO VISION.

      THIS PRODUCT IS RELEASED AS TWO VERSIONS.  ONE VERSION NEAR
      THE TOP OF THE HOUR CONTAINING PRELIMINARY DATA FROM ALBUQUERQUE
      AND OTHER STATIONS.  A FINAL VERSION WITH ADDITIONAL DATA IS
      ISSUED ABOUT 10 MINUTES AFTER THE HOUR.

NMZ501-503-504-510>518-241100-
NORTHWEST PLATEAU/NORTHCENTRAL MOUNTAINS

CITY           SKY/WX    TMP DP  RH WIND       PRES   REMARKS
FARMINGTON     FAIR      46  27  47 NE6       30.04F
LOS ALAMOS     FAIR      44  31  60 SW5       30.14F
SANTA FE       FAIR      44  32  62 NE5       30.09F
TAOS           FAIR      36  19  51 NE5       30.14F WCI  32
ANGEL FIRE     FAIR      27  25  93 CALM      30.18S

$$
NMZ402-403-502-505>509-241100-
WESTCENTRAL MOUNTAINS/SOUTHWEST MOUNTAINS

CITY           SKY/WX    TMP DP  RH WIND       PRES   REMARKS
GALLUP         FAIR      42  26  53 CALM      30.13F
GRANTS         FAIR      37  20  49 CALM      30.14F
SILVER CITY    FAIR      51  25  35 CALM      30.07F

$$
NMZ407-409-411-412-241100-
SOUTHERN DESERTS

CITY           SKY/WX    TMP DP  RH WIND       PRES   REMARKS
DEMING         FAIR      56  37  49 NE9       30.02S
LAS CRUCES     FAIR      58  38  47 SE8       30.04S
HOLLOMAN AFB   FAIR      54  33  45 CALM      30.06S
ALAMOGORDO     FAIR      54  34  47 N5        30.04S
T OR C         FAIR      60  21  22 W7        30.03R

$$
NMZ519>523-241100-
CENTRAL VALLEYS/CENTRAL HIGHLANDS

CITY           SKY/WX    TMP DP  RH WIND       PRES   REMARKS
ALBUQUERQUE    FAIR      54  33  45 NW8       30.07S
DOUBLE EAGLE   FAIR      44  32  61 N8        30.08F
MORIARTY ARPT  FAIR      32  29  87 N3        30.11F
CLINES CORNERS FAIR      40  30  67 E5        30.12F
BELEN          FAIR      49  26  39 NE7       30.05F
SOCORRO        FAIR      50  23  34 SE6       30.04R

$$
NMZ524>526-539-540-241100-
SOUTHCENTRAL MOUNTAINS

CITY           SKY/WX    TMP DP  RH WIND       PRES   REMARKS
RUIDOSO        FAIR      41  32  70 W7        30.13F

$$
NMZ527>531-241100-
NORTHEAST HIGHLANDS/NORTHEAST PLAINS

CITY           SKY/WX    TMP DP  RH WIND       PRES   REMARKS
LAS VEGAS      FAIR      36  30  79 S15       30.10F WCI  27
RATON          FAIR      35  31  85 N7        30.06F WCI  29
CLAYTON        FAIR      41  34  76 W9        30.01F

$$
NMZ532>537-241100-
EASTCENTRAL PLAINS

CITY           SKY/WX    TMP DP  RH WIND       PRES   REMARKS
SANTA ROSA     FAIR      46  34  62 CALM      30.05F
TUCUMCARI      FAIR      48  42  80 W9        29.99F
CANNON AFB     FAIR      48  40  73 W8        30.04F
CLOVIS AIRPORT FAIR      45  36  70 W8        30.02F

$$
NMZ028-029-538-241100-
SOUTHEAST PLAINS

CITY           SKY/WX    TMP DP  RH WIND       PRES   REMARKS
ROSWELL        FAIR      48  32  53 SW3       30.02F
ARTESIA        FAIR      52  36  54 CALM      30.04S
CARLSBAD       FAIR      52  42  69 SW3       30.01F
HOBBS          FAIR      45  32  61 W7        30.04F


$$




USA.gov is the U.S. government's official web portal to all federal, state and local government web resources and services.